Home > Weather > Kawartha Lakes > Past weeks

Flag for Canada Weather for the Past 2 Weeks in Kawartha Lakes, Ontario, Canada

Now
-19 °F

Extremely cold.


Feels Like: -42 °F
Forecast: -19 / 1 °F
Wind: 13 mph from North

Location: Lagoon City

Current Time: Feb 13, 2016 at 5:57:30 AM

Latest Report: Feb 13, 2016 at 5:00 AM


Visibility: N/A

Pressure: 30.24 "Hg

Humidity: 61%

Dew point: -28 °F

Location of Kawartha LakesLocation

Historic Weather in Kawartha Lakes — Graph

°F

Kawartha Lakes Temperature Yesterday

Maximum temperature yesterday: 22 °F (at 1:00 PM)
Minimum temperature yesterday: 0 °F (at 11:00 PM)
Average temperature yesterday: 15 °F

High & Low Weather Summary for the Past Weeks

 TemperatureHumidityPressure
High46 °F (Feb 3, 4:00 PM)100% (Feb 1, 3:00 AM)30.36 "Hg (Feb 1, 3:00 AM)
Low-17 °F (Feb 13, 4:00 AM)58% (Feb 11, 1:00 PM)29.40 "Hg (Jan 31, 11:00 PM)
Average25 °F81%29.87 "Hg
* Reported Jan 29 4:00 AM — Feb 13 4:00 AM, Kawartha Lakes, Weather by CustomWeather, © 2016

Note: Actual official high and low records may vary slightly from our data, if they occured in-between our weather recording intervals... More about our weather records

Advertising

Kawartha Lakes Weather History for the Previous 24 Hours

 ConditionsComfort  
Time TempWeatherWind HumidityBarometerVisibility
4:00 AM
Sat, Feb 13
-17 °FExtremely cold.12 mph64%30.20 "HgN/A
3:00 AM-14 °FExtremely cold.15 mph65%30.17 "HgN/A
2:00 AM-11 °FExtremely cold.17 mph68%30.11 "HgN/A
1:00 AM-7 °FFrigid.16 mph70%30.08 "HgN/A
12:00 AM-3 °FFrigid.13 mph72%30.04 "HgN/A
11:00 PM
Fri, Feb 12
0 °FFrigid.15 mph73%30.00 "HgN/A
10:00 PM6 °FFrigid.16 mph73%29.95 "HgN/A
9:00 PM9 °FFrigid.10 mph71%29.91 "HgN/A
8:00 PM10 °FCold.9 mph67%29.90 "HgN/A
7:00 PM13 °FCold.12 mph70%29.87 "HgN/A
6:00 PM16 °FCold.10 mph78%29.84 "HgN/A
5:00 PM16 °FCold.6 mph91%29.82 "HgN/A
4:00 PM17 °FCold.5 mph91%29.80 "HgN/A
3:00 PM20 °FCold.21 mph84%29.78 "HgN/A
2:00 PM20 °FCold.25 mph89%29.79 "HgN/A
1:00 PM22 °FCold.29 mph72%29.80 "HgN/A
12:00 PM20 °FCold.28 mph82%29.84 "HgN/A
11:00 AM18 °FCold.30 mph84%29.86 "HgN/A
10:00 AM18 °FCold.31 mph81%29.88 "HgN/A
9:00 AM18 °FCold.31 mph87%29.90 "HgN/A
8:00 AM18 °FCold.29 mph75%29.93 "HgN/A
7:00 AM16 °FCold.29 mph80%29.95 "HgN/A
6:00 AM16 °FCold.26 mph83%29.97 "HgN/A
5:00 AM16 °FCold.25 mph85%29.98 "HgN/A
Weather by CustomWeather, © 2016

See weather overviewHow to use our weather pages